Weather History for Whiting Fld NAS, FL

Change the Weather History Date:

Friday, October 21, 2011

  Actual Average Record
Temperature  
Mean Temperature 54 °F -  
Max Temperature 73 °F 76 °F 87 °F (2003)
Min Temperature 37 °F 56 °F 37 °F (2011)
Degree Days  
Heating Degree Days 10    
Growing Degree Days 4 (Base 50)    
Moisture  
Dew Point 37 °F    
Average Humidity 60    
Maximum Humidity 93    
Minimum Humidity 22    
Precipitation  
Precipitation 0.00 in - - ()
Sea Level Pressure  
Sea Level Pressure 30.13 in    
Wind  
Wind Speed 4 mph (NNW)    
Max Wind Speed 14 mph    
Max Gust Speed 20 mph    
Visibility 10 miles    
Events      
Averages and records for this station are not official NWS values.
T = Trace of Precipitation, MM = Missing Value Source: NWS Daily Summary

Daily Weather History Graph

Daily Weather History Graph

Search for Another Location

Airport:

Trip Planner

Search our weather history database for the weather conditions in past years. The results will help you decide how hot, cold, wet, or windy it might be!

Date:

Astronomy

Oct. 21, 2011 Rise Set
Actual Time 6:54 AM CDT 6:10 PM CDT
Civil Twilight 6:30 AM CDT 6:34 PM CDT
Nautical Twilight 6:01 AM CDT 7:03 PM CDT
Astronomical Twilight 5:33 AM CDT 7:31 PM CDT
Moon 1:08 AM CDT (10/21) 2:33 PM CDT (10/21)
Length of Visible Light 12h 04m
Length of Day
11h 16m
Waning Crescent, 33% of the Moon is Illuminated
Oct 21
Waning Crescent
Oct 26
New
Nov 2
First Quarter
Nov 10
Full
Nov 18
Last Quarter

Hourly Weather History & Observations

Time (CDT) Temp. Windchill Dew Point Humidity Pressure Visibility Wind Dir Wind Speed Gust Speed Precip Events Conditions
12:56 AM 41.0 °F - 39.0 °F 93% 30.10 in 10.0 mi Calm Calm - N/A   Clear
1:56 AM 42.1 °F 40.2 °F 39.0 °F 89% 30.12 in 10.0 mi NW 3.5 mph - N/A   Clear
2:56 AM 43.0 °F 40.3 °F 37.9 °F 82% 30.12 in 10.0 mi NNW 4.6 mph - N/A   Clear
3:56 AM 42.1 °F 39.2 °F 37.0 °F 82% 30.12 in 10.0 mi NNW 4.6 mph - N/A   Clear
4:56 AM 41.0 °F 39.0 °F 37.0 °F 86% 30.13 in 10.0 mi NNW 3.5 mph - N/A   Clear
5:56 AM 37.9 °F 35.5 °F 36.0 °F 93% 30.14 in 10.0 mi NNW 3.5 mph - N/A   Clear
6:11 AM 37.4 °F 33.8 °F 35.6 °F 93% 30.17 in 10.0 mi NNW 4.6 mph - N/A   Clear
6:56 AM 39.0 °F - 36.0 °F 89% 30.16 in 10.0 mi Calm Calm - N/A   Clear
7:56 AM 48.9 °F - 41.0 °F 74% 30.18 in 10.0 mi North 3.5 mph - N/A   Clear
8:56 AM 57.0 °F - 39.9 °F 53% 30.19 in 10.0 mi North 8.1 mph - N/A   Clear
9:56 AM 63.0 °F - 39.9 °F 43% 30.20 in 10.0 mi Variable 3.5 mph - N/A   Clear
10:56 AM 64.0 °F - 36.0 °F 35% 30.19 in 10.0 mi Calm Calm - N/A   Clear
11:56 AM 68.0 °F - 36.0 °F 31% 30.17 in 10.0 mi NNW 9.2 mph - N/A   Clear
12:56 PM 69.1 °F - 35.1 °F 29% 30.14 in 10.0 mi NNW 10.4 mph - N/A   Clear
1:56 PM 70.0 °F - 34.0 °F 27% 30.12 in 10.0 mi North 11.5 mph 19.6 mph N/A   Clear
2:56 PM 72.0 °F - 30.9 °F 22% 30.09 in 10.0 mi NNW 13.8 mph 19.6 mph N/A   Clear
3:56 PM 72.0 °F - 30.9 °F 22% 30.08 in 10.0 mi NNW 8.1 mph 17.3 mph N/A   Clear
4:56 PM 71.1 °F - 34.0 °F 26% 30.08 in 10.0 mi NNW 10.4 mph - N/A   Clear
5:56 PM 64.9 °F - 36.0 °F 34% 30.09 in 10.0 mi NW 4.6 mph - N/A   Clear
6:56 PM 54.0 °F - 39.9 °F 59% 30.10 in 10.0 mi Calm Calm - N/A   Clear
7:56 PM 52.0 °F - 39.9 °F 63% 30.11 in 10.0 mi NW 3.5 mph - N/A   Clear
8:56 PM 50.0 °F - 37.9 °F 63% 30.12 in 10.0 mi Calm Calm - N/A   Clear
9:56 PM 46.9 °F - 39.0 °F 74% 30.13 in 10.0 mi Calm Calm - N/A   Clear
10:56 PM 48.0 °F - 37.9 °F 68% 30.12 in 10.0 mi North 3.5 mph - N/A   Clear
11:56 PM 48.0 °F - 37.9 °F 68% 30.11 in 10.0 mi North 3.5 mph - N/A   Clear